Theta_e
313 314 314 315 315 316 316 316 317 318 318 318 319 319 319 319 320 322 321 321 322 321 321 322 322 320 320 321 321 321 324 318 313 310 309 313 321 325 326 328 329 331 333 323 320 317 311 308 311 315 311 309 307 308 309 309 307 306 300 293 292 292 294 297 299 297 302 300 298 296 296 298 296 299 302 302 303 300 303 306 306 309 309 310 311 312 316 319
314 314 314 314 314 315 316 316 317 317 317 317 318 318 318 319 320 321 321 321 322 321 321 321 321 320 320 320 321 322 319 313 308 308 308 317 324 325 326 327 329 329 330 319 315 313 308 306 310 313 307 305 308 307 308 306 309 301 296 296 297 293 298 302 301 300 299 299 295 296 295 297 298 299 301 300 298 301 302 303 303 307 308 310 312 315 317 319
314 314 314 314 314 314 315 315 316 316 316 316 317 317 318 318 319 320 321 321 322 321 320 321 321 321 319 320 320 322 313 307 304 299 303 319 325 326 327 327 327 329 323 318 315 314 311 310 310 311 306 304 304 304 306 305 307 301 300 295 295 300 301 301 302 305 302 300 298 296 296 297 299 299 300 299 296 298 299 298 301 304 306 308 311 312 316 318
313 313 314 313 314 314 314 315 315 315 316 316 317 317 317 317 318 318 320 321 321 321 321 320 321 320 320 319 321 315 308 299 290 297 309 328 325 328 328 329 329 328 323 320 316 317 314 312 310 312 307 303 300 304 303 305 304 302 300 296 299 302 302 304 302 304 303 300 298 297 296 297 298 298 299 296 299 298 298 298 302 302 304 309 311 313 315 317
312 312 313 313 313 313 314 314 314 315 315 315 316 316 316 317 317 318 319 321 321 321 320 320 320 320 320 319 321 311 304 287 287 303 324 326 328 329 329 329 330 327 325 317 316 314 314 309 308 307 306 300 299 303 301 302 304 302 302 302 301 303 303 307 303 301 302 299 298 297 298 298 299 299 296 299 297 295 300 303 302 303 305 312 312 313 314 316
311 311 311 312 312 312 313 313 314 314 315 315 315 315 315 316 316 317 319 320 321 321 320 321 320 319 319 320 314 312 294 279 298 314 329 326 323 322 323 322 322 326 322 317 315 311 310 307 306 301 302 301 300 301 300 303 305 299 300 300 301 302 304 305 304 302 301 302 299 297 300 300 299 300 295 299 299 298 298 299 302 303 309 314 315 314 314 315
311 311 311 311 311 311 312 312 313 313 314 314 314 315 315 315 316 316 317 319 320 320 321 321 320 320 318 318 313 310 300 295 306 315 327 326 321 319 320 321 322 323 322 317 314 312 307 305 303 297 299 299 300 300 301 303 304 301 300 299 302 303 305 304 307 301 301 302 304 300 301 300 298 298 298 297 299 299 298 298 298 302 314 315 314 314 315 316
310 310 310 310 310 311 311 311 312 312 313 313 314 314 314 315 315 316 316 317 319 319 320 320 320 320 318 312 308 300 299 297 304 309 316 318 314 314 318 316 323 322 320 318 315 313 307 304 303 300 300 300 297 303 302 302 302 302 300 299 300 302 303 304 304 303 302 301 301 301 300 300 299 299 297 297 300 301 305 306 308 313 313 313 314 314 315 314
310 310 310 310 310 311 311 311 311 312 312 313 313 313 314 315 315 315 316 317 318 319 320 320 319 318 318 312 303 296 294 304 307 309 309 308 308 312 314 310 321 319 318 318 317 315 312 305 304 303 296 299 301 302 301 301 298 301 302 299 301 302 302 302 303 303 302 302 301 302 299 299 300 304 300 301 301 300 308 311 312 312 312 312 313 314 315 315
310 310 310 310 310 310 311 311 311 311 312 312 313 313 314 314 315 315 315 316 317 318 319 319 319 318 314 308 303 292 302 304 306 307 307 308 309 310 312 314 319 318 318 317 316 314 311 306 308 306 304 301 301 302 299 300 297 300 302 301 301 304 304 302 303 303 302 302 300 302 299 300 303 302 300 304 304 308 309 309 310 312 312 313 314 314 314 315
310 310 310 310 310 310 311 311 311 312 312 312 312 313 313 314 314 314 314 315 316 318 318 319 319 317 309 309 297 292 308 306 311 309 307 306 306 306 307 308 318 317 318 315 315 316 314 309 309 307 306 303 300 299 298 301 302 302 302 302 301 301 301 301 301 301 302 303 300 302 301 302 302 301 301 306 306 308 308 309 310 309 311 313 313 314 315 315
310 310 310 310 310 310 310 311 311 311 311 312 312 313 313 313 313 314 315 315 315 317 317 318 319 315 309 305 299 298 305 310 305 306 306 304 304 305 306 308 314 318 317 314 314 316 315 314 311 308 298 303 298 298 297 298 300 299 301 298 298 300 302 301 301 300 301 302 301 301 301 299 299 300 303 306 304 304 307 309 310 310 311 312 313 314 314 315
309 310 310 310 310 310 310 311 311 311 311 311 312 312 312 312 313 313 314 314 315 316 317 317 317 313 307 298 303 310 309 307 306 306 306 305 303 304 306 309 313 318 319 316 313 316 316 314 313 309 307 304 298 295 299 303 299 298 298 296 297 297 298 303 301 299 301 302 300 303 294 297 300 304 305 306 304 302 305 307 309 311 311 312 312 314 315 315
309 309 309 309 310 310 310 310 311 311 311 311 311 312 312 312 312 313 313 313 314 314 316 317 314 311 304 300 306 308 312 310 308 306 305 305 300 301 305 312 316 320 322 318 316 317 316 316 314 311 310 307 301 306 303 296 296 297 294 296 292 291 292 297 303 298 301 301 300 303 296 295 299 302 306 307 304 303 303 304 306 309 310 310 311 313 314 316
309 309 309 310 310 310 310 310 311 311 311 311 311 311 312 312 312 312 313 313 313 313 315 315 312 305 300 302 307 310 316 307 305 305 307 303 300 298 302 310 314 321 321 320 316 316 317 315 314 309 304 308 308 303 296 290 290 292 293 291 288 292 289 295 299 301 301 301 300 302 296 298 298 301 303 305 303 303 304 304 305 305 308 309 309 311 313 315
310 310 310 310 310 310 310 310 310 311 311 311 311 311 311 312 311 312 312 312 312 313 311 307 307 305 298 295 304 313 306 300 300 305 305 303 300 297 301 308 312 317 320 318 320 319 318 316 310 308 305 305 302 294 292 289 291 291 293 286 290 289 291 292 297 300 305 301 299 302 294 291 298 302 303 302 304 302 303 305 305 305 305 306 307 308 310 312
310 310 310 310 310 310 310 310 310 310 311 311 311 311 311 311 311 311 311 311 310 310 308 303 308 306 291 304 307 299 297 302 302 301 303 302 301 300 301 307 310 314 316 315 317 317 313 310 310 307 306 300 297 298 293 289 286 289 291 291 288 291 289 291 294 298 299 302 299 298 298 293 297 299 302 302 302 302 302 304 305 306 306 306 306 305 306 306
310 310 310 310 310 310 310 310 310 310 310 310 310 309 307 310 310 310 308 309 309 308 307 309 307 300 295 304 295 294 298 298 300 300 299 300 302 303 304 304 310 312 311 308 311 308 311 305 308 300 301 298 296 297 290 285 289 289 289 287 288 286 291 291 290 292 298 298 299 297 297 299 299 299 299 301 299 301 303 305 306 306 306 305 304 305 305 306
310 310 310 310 310 310 310 310 310 310 310 310 310 309 308 309 307 305 301 302 298 293 291 293 295 284 284 295 299 297 297 300 301 301 299 301 302 304 306 310 310 308 304 302 302 306 307 304 304 298 295 296 297 297 293 291 291 290 291 292 291 289 288 290 290 292 300 297 297 297 297 298 299 301 303 301 299 300 302 303 303 303 302 303 303 304 304 305
310 310 310 310 310 310 310 311 310 310 311 308 302 303 300 295 294 292 300 300 295 295 295 296 299 297 296 297 298 301 303 303 297 297 302 304 303 302 302 305 303 306 302 297 300 303 306 297 294 294 297 298 298 299 297 290 290 293 292 291 289 288 287 288 291 293 298 297 297 298 299 298 300 301 303 304 300 298 299 299 301 302 303 303 303 304 304 304
310 310 310 310 311 310 310 311 311 310 311 303 300 298 289 290 285 283 292 295 298 297 296 296 297 298 296 297 300 300 297 296 298 297 301 308 304 298 296 300 298 295 299 301 299 305 304 294 295 298 300 300 299 299 299 295 293 290 290 290 288 287 289 290 294 295 294 297 295 297 297 298 299 301 303 303 301 300 300 300 300 302 303 303 303 303 303 305
310 311 311 311 311 311 311 311 311 310 310 300 301 296 296 293 296 299 295 286 293 296 297 296 298 297 301 300 301 302 302 295 294 295 303 305 300 290 293 295 295 292 299 299 299 297 295 293 298 301 302 301 299 299 299 297 295 290 288 288 288 289 288 290 292 293 293 295 294 292 294 296 298 299 301 300 301 303 303 303 303 302 302 302 303 303 304 304
310 311 311 311 311 311 310 311 310 311 303 299 297 298 295 298 299 299 296 292 289 296 295 295 293 294 295 300 303 303 295 294 291 295 302 303 296 290 297 293 293 294 296 298 293 293 290 295 299 302 302 299 297 297 297 296 295 293 290 286 287 289 290 286 291 293 293 295 287 288 291 294 292 294 299 301 300 300 303 303 303 303 303 303 304 305 306 305
310 310 310 310 311 311 311 310 310 306 302 301 300 298 300 300 300 299 294 283 284 290 294 296 296 295 294 294 301 300 295 295 295 293 305 302 294 294 297 294 291 293 292 296 295 294 293 299 301 300 299 298 296 296 295 294 292 294 293 290 289 287 290 290 288 291 291 292 292 290 289 291 291 293 293 296 296 297 299 299 300 302 302 304 304 304 303 305
310 310 310 310 310 311 310 309 303 301 304 302 300 302 301 301 300 299 292 286 287 286 295 293 297 296 297 303 302 297 297 296 297 298 305 303 297 294 292 297 294 290 292 295 296 295 295 301 301 299 298 297 297 294 295 294 291 292 294 293 292 289 290 290 290 292 290 290 290 290 284 286 292 292 294 297 293 294 296 297 299 301 302 301 302 303 304 304
309 310 309 309 309 310 309 299 299 303 301 298 301 303 302 300 300 300 293 279 275 284 291 283 299 292 304 295 298 298 300 291 299 299 306 305 304 294 295 293 295 288 291 292 293 296 296 301 300 297 297 296 296 295 296 296 291 289 290 296 293 289 290 290 289 291 286 285 288 289 287 283 282 286 291 293 295 297 296 296 298 300 301 301 302 303 304 305
309 309 309 309 309 310 299 294 304 303 296 298 302 303 301 300 302 298 285 276 273 286 281 290 291 289 299 296 297 297 282 285 299 301 303 306 300 300 291 290 293 293 294 294 291 289 297 297 297 297 297 295 294 293 296 296 293 289 293 294 292 290 290 290 290 290 286 288 289 289 289 285 285 288 287 290 292 294 295 295 297 298 298 300 301 302 303 305
309 309 309 309 309 308 299 303 300 297 298 301 304 302 301 298 297 293 282 268 269 289 281 289 291 300 296 297 298 291 291 299 289 295 304 305 303 297 292 290 291 290 292 292 282 294 295 293 295 295 295 293 293 296 298 298 294 291 293 296 294 294 290 289 290 288 288 288 284 286 287 285 284 287 288 289 288 290 291 292 295 296 297 299 300 301 302 304
309 309 309 309 309 309 306 302 300 297 301 303 303 301 300 298 294 285 277 267 281 278 298 286 302 294 292 296 293 294 293 296 289 297 302 304 303 296 290 291 292 290 290 291 286 290 293 295 295 297 295 292 296 299 298 298 293 293 297 298 296 295 293 292 287 288 286 286 283 287 288 284 284 285 287 287 289 291 293 293 294 295 297 298 300 301 302 303
309 309 309 309 307 304 302 303 300 301 303 303 302 301 300 297 288 277 271 265 280 270 287 292 290 287 293 289 290 293 290 293 297 299 301 297 300 300 294 295 291 288 289 291 290 290 294 296 297 297 295 298 298 299 298 298 298 294 295 293 293 293 292 289 289 287 287 283 285 290 288 286 281 287 287 288 288 292 291 292 294 295 297 298 299 301 302 303
308 309 309 309 300 302 302 297 301 303 304 303 302 300 295 288 279 272 266 271 279 280 290 287 284 292 287 287 284 290 290 293 294 297 292 297 294 296 295 291 291 287 286 286 287 291 291 292 294 295 297 297 297 295 295 297 295 295 291 289 290 287 289 287 285 287 283 281 288 290 288 287 280 284 287 291 289 292 295 295 294 296 297 299 300 301 302 303
308 308 309 305 301 303 297 295 302 305 303 302 300 294 289 275 279 269 269 281 268 275 280 281 287 287 287 289 287 287 286 290 292 293 291 291 290 289 290 284 288 280 282 284 283 289 287 289 292 295 296 296 294 294 291 294 295 293 291 290 286 282 284 280 284 280 280 281 287 289 289 284 284 289 285 285 287 290 291 293 296 297 298 299 300 302 303 303
308 308 309 306 305 298 299 301 303 303 303 301 295 291 281 274 268 275 274 273 268 280 278 288 284 287 287 285 284 288 291 285 291 288 293 292 289 290 292 288 289 285 277 284 282 282 284 288 290 292 295 297 295 291 288 287 290 292 289 287 284 280 279 277 280 282 283 285 286 284 289 285 289 292 295 295 296 292 293 294 295 296 297 298 299 300 301 301
308 307 303 304 302 302 301 302 303 302 299 298 291 285 280 271 271 282 276 271 271 279 284 283 287 287 287 282 283 287 282 287 289 288 291 285 287 285 288 289 287 284 280 283 280 280 275 277 284 290 286 296 295 295 294 291 291 291 294 291 287 286 281 276 280 277 279 281 282 283 283 279 285 286 290 296 297 299 300 298 296 296 296 298 298 297 296 296
307 304 301 300 299 300 301 303 303 302 298 292 286 281 273 272 277 274 273 275 272 277 281 287 283 285 282 285 285 286 287 283 289 288 287 285 283 285 285 286 289 287 283 280 282 281 279 278 281 293 292 295 292 295 295 293 290 291 290 293 288 286 289 283 284 283 281 278 280 282 282 286 288 292 290 291 290 292 294 297 299 298 297 296 296 297 298 297
303 296 299 297 298 297 301 302 302 301 294 288 282 276 274 278 274 278 275 282 281 276 278 282 282 280 282 282 285 284 286 280 286 288 286 287 288 285 289 288 288 289 285 279 283 277 280 278 282 288 293 294 294 296 292 295 284 289 290 285 289 293 292 285 283 280 284 282 280 285 283 285 290 294 295 294 292 291 290 292 295 297 299 298 297 298 297 297
297 298 294 296 297 299 302 302 302 298 293 287 280 275 280 279 282 281 285 280 282 282 276 273 274 278 277 277 280 283 284 285 284 285 281 288 284 287 286 287 291 290 289 285 279 280 278 278 282 284 285 289 293 294 293 295 295 291 286 290 292 292 289 286 280 280 277 278 280 285 282 283 283 282 287 293 292 292 292 292 294 295 296 296 298 298 298 297
295 296 295 293 295 301 302 302 301 297 289 283 278 282 281 279 283 282 283 282 281 282 277 274 274 282 279 280 278 283 285 282 280 284 281 287 280 292 287 286 291 290 291 289 281 278 282 275 279 286 287 287 291 294 291 293 293 292 289 291 288 282 282 281 282 277 275 277 280 283 283 284 285 286 284 286 290 292 292 292 292 292 293 295 297 298 296 297
294 292 287 294 299 302 301 302 299 293 283 278 278 279 279 280 286 283 284 285 283 281 277 277 274 280 283 281 282 284 285 279 284 282 281 282 281 289 288 290 287 292 292 290 284 281 283 275 276 282 283 287 290 291 284 289 293 290 292 288 289 288 286 284 283 283 284 278 280 278 282 280 287 289 290 286 288 291 292 292 292 294 295 295 296 295 295 297
292 287 284 294 300 301 302 300 294 288 283 277 280 280 279 277 283 285 286 287 283 281 278 278 278 276 281 283 284 281 285 284 284 283 283 284 284 288 288 292 287 290 292 291 286 284 279 279 270 280 286 288 285 290 286 289 286 287 288 286 287 286 289 287 287 285 281 279 280 278 278 278 284 289 290 290 290 291 293 294 295 295 294 292 292 293 295 297
292 285 284 295 298 301 300 293 284 281 280 283 283 281 278 279 281 284 286 287 284 281 282 280 280 278 281 281 281 284 283 284 284 282 282 280 285 279 289 291 291 289 291 289 287 282 277 276 275 284 284 283 286 294 291 290 291 289 289 287 289 286 284 281 279 290 284 282 275 278 277 283 285 287 290 292 292 292 294 293 294 292 293 291 290 291 292 294
289 280 284 298 300 300 294 283 284 285 281 280 279 280 277 289 280 282 284 285 286 283 279 281 281 282 281 281 283 283 283 282 283 283 283 282 285 285 284 291 290 293 290 286 286 289 284 276 276 279 284 285 283 286 285 286 288 291 291 288 289 288 288 284 279 282 284 285 284 277 277 280 287 287 286 286 286 287 287 287 290 290 290 289 289 290 290 292
285 281 293 298 301 296 289 282 285 283 280 280 280 283 285 284 280 281 282 282 282 284 280 279 280 282 284 283 282 282 284 281 283 282 284 284 285 286 284 290 291 292 292 288 291 288 293 276 275 272 281 284 286 281 282 281 287 286 286 288 286 286 287 287 286 285 282 284 284 282 280 283 290 286 283 283 284 284 284 285 289 289 289 290 290 290 290 291
284 285 288 295 299 296 285 277 278 280 282 280 282 281 283 283 281 280 281 281 283 281 281 281 280 282 283 286 285 282 285 279 284 283 282 284 282 285 287 289 294 291 291 288 287 292 284 279 281 272 273 279 284 286 286 285 284 283 283 287 289 289 288 283 282 282 279 281 283 282 278 284 288 286 284 284 284 287 288 287 285 288 289 289 290 290 290 290
284 283 285 287 293 293 282 283 280 280 281 279 281 280 280 281 282 282 284 282 280 280 279 280 283 283 282 284 284 285 285 284 279 285 285 282 284 286 288 291 294 291 293 292 294 293 286 281 282 275 273 272 272 274 277 280 283 285 282 285 287 287 285 285 283 284 280 283 283 278 280 285 287 287 286 286 285 287 289 288 288 287 288 289 289 289 289 289
282 276 276 277 283 285 285 283 280 278 277 279 279 281 281 281 285 284 285 281 280 278 283 280 281 285 280 282 281 282 283 285 282 280 283 282 282 285 286 291 292 291 293 295 293 292 281 281 283 282 279 277 279 281 287 288 285 281 282 287 285 286 288 288 285 284 281 285 283 283 284 284 286 289 289 289 285 288 289 289 289 290 289 288 288 288 289 289
283 274 273 273 276 280 281 282 280 282 280 284 278 281 279 281 281 283 287 283 284 282 280 281 280 281 280 282 281 281 283 283 285 283 282 282 282 284 285 290 291 292 294 293 293 287 278 282 283 283 283 283 284 281 284 288 283 284 284 285 287 285 286 285 284 282 287 284 280 287 287 284 287 290 291 291 292 289 287 288 290 290 290 290 290 288 291 289
275 273 273 277 276 274 279 281 284 283 283 283 280 283 281 281 282 280 283 285 284 284 281 278 278 281 283 282 282 279 281 282 283 282 285 283 283 284 284 286 288 292 292 289 292 288 282 281 285 282 282 284 284 280 282 284 284 284 284 284 284 285 285 285 285 287 286 282 280 285 286 286 289 291 293 294 295 295 295 293 292 292 291 290 290 290 290 290
279 277 278 282 278 278 282 282 284 283 282 283 282 283 281 281 280 282 282 283 283 282 283 276 278 282 283 284 283 281 282 277 279 283 283 282 283 282 280 283 286 287 292 288 290 288 286 282 283 283 282 283 280 281 281 281 280 279 283 284 285 285 285 286 286 287 286 284 284 285 284 286 290 291 292 294 294 295 292 290 290 291 291 292 292 291 291 291
276 280 278 285 284 283 282 283 284 283 281 284 279 280 281 281 280 282 284 284 280 281 283 281 280 282 283 284 284 281 283 284 284 280 284 284 280 283 284 284 281 284 287 287 288 283 286 283 286 279 279 280 281 282 280 280 280 280 280 282 284 285 286 287 287 287 287 286 286 286 283 284 288 289 291 290 288 292 292 291 293 294 295 294 294 294 294 294
285 285 286 284 282 282 283 283 283 282 279 280 280 280 281 280 280 283 282 284 283 281 282 281 282 281 283 283 283 283 286 286 286 286 286 286 283 286 285 282 286 284 286 284 282 279 285 278 279 278 277 277 277 280 281 277 277 276 275 276 277 279 281 284 285 287 286 285 286 286 284 285 290 290 291 289 290 291 292 292 293 294 294 293 293 294 294 294
283 283 287 286 281 286 280 282 282 281 277 279 282 280 281 280 281 282 281 283 284 285 285 284 283 283 280 282 282 284 287 288 288 289 290 289 289 288 289 287 289 288 285 286 283 281 282 278 277 276 277 278 275 280 278 276 273 276 278 281 282 283 286 287 288 289 288 289 285 284 285 291 293 292 290 291 290 290 290 292 293 294 294 293 293 294 294 295
Wind_Speed
18 18 17 17 16 15 15 15 15 15 15 14 15 15 14 12 13 12 12 13 14 14 15 15 13 10 10 11 12 13 14 7 8 6 7 9 7 12 15 14 16 14 8 5 7 10 8 8 7 10 5 3 2 1 1 1 1 1 1 4 1 4 3 4 4 7 0 0 1 2 5 5 2 1 1 2 4 2 1 0 3 1 2 2 4 2 4 6
16 17 18 17 17 16 16 15 15 15 14 14 14 15 14 13 12 13 12 12 12 14 13 15 13 10 10 11 11 13 8 5 9 10 16 9 15 14 17 16 18 16 4 3 4 4 5 7 6 8 4 1 1 1 1 1 1 3 1 2 7 5 5 5 4 5 1 4 3 2 3 4 5 7 2 2 1 1 1 2 1 2 2 2 2 4 8 8
17 16 17 18 18 18 17 16 15 15 15 15 15 15 15 14 13 13 13 12 12 12 13 16 15 11 10 11 11 10 6 5 7 12 14 15 21 22 20 19 17 17 4 4 0 1 1 4 4 4 2 1 1 3 1 1 3 3 4 5 6 7 4 4 3 3 6 1 1 2 3 4 1 5 1 2 3 1 6 5 1 2 5 2 0 4 6 6
16 16 16 16 17 17 17 16 16 15 15 15 15 15 15 14 14 13 13 11 11 12 11 13 16 12 9 9 9 4 5 5 5 3 4 9 12 20 20 19 19 15 3 3 3 1 0 3 4 1 1 1 3 0 1 3 2 1 2 4 4 5 2 4 6 7 4 4 1 3 1 2 1 4 3 4 5 3 6 6 8 9 9 6 5 6 6 7
16 16 16 16 17 16 17 16 16 16 15 15 15 15 15 15 14 14 13 12 11 11 13 11 12 15 7 7 7 3 3 5 5 1 4 19 19 6 14 14 13 3 4 3 4 2 1 0 1 2 0 3 1 0 3 2 2 4 7 5 3 2 3 4 3 5 2 3 2 1 5 4 2 1 3 8 7 6 8 9 9 8 6 10 10 8 5 7
16 15 15 16 15 15 16 16 16 16 16 16 15 14 15 15 15 14 13 12 12 12 12 12 11 14 11 4 4 2 1 3 1 1 3 14 16 18 12 10 9 0 5 3 3 1 2 1 1 1 1 1 3 6 3 4 3 5 3 2 4 4 3 1 2 3 3 2 2 2 2 3 4 1 2 7 8 5 5 3 6 7 5 6 7 10 8 8
15 16 16 15 15 15 15 16 16 16 16 16 16 16 15 15 14 15 13 14 12 12 11 12 11 11 11 5 2 1 4 7 2 7 4 9 14 15 14 11 9 3 6 5 3 2 1 2 2 4 1 1 5 4 5 1 1 3 8 3 6 5 6 4 1 5 2 5 0 2 0 3 2 4 1 4 7 6 1 2 4 3 7 8 10 10 14 14
15 15 15 14 15 15 15 15 15 16 16 16 16 16 15 15 15 14 13 13 14 12 11 11 13 11 10 1 1 4 8 9 15 14 16 14 14 10 10 6 3 4 6 7 7 5 3 3 5 1 2 6 2 6 1 2 1 7 6 3 2 3 5 5 4 3 1 3 0 2 3 4 8 3 4 5 9 7 1 2 3 6 7 6 8 11 9 9
16 15 15 14 14 14 15 15 15 15 15 16 16 16 15 15 15 14 14 13 14 13 12 10 12 13 10 3 3 3 11 6 8 14 12 11 13 8 5 5 2 3 2 4 5 5 6 4 3 3 3 2 1 1 2 4 7 5 7 3 3 4 4 4 3 5 5 2 1 1 5 3 3 1 3 6 6 2 2 4 4 5 7 8 10 11 11 11
16 16 15 15 14 14 14 15 15 15 15 16 16 16 16 16 15 14 14 14 13 12 13 12 9 13 8 4 4 11 3 10 7 9 11 5 6 7 6 3 1 2 1 3 3 6 8 3 5 3 0 3 1 4 0 3 4 1 5 6 5 5 4 0 5 5 1 2 2 5 4 3 1 2 4 3 4 3 4 4 2 6 8 8 7 8 8 10
16 16 16 15 14 14 14 15 15 15 15 15 16 16 15 16 15 14 14 14 14 11 13 13 10 9 9 6 8 15 3 3 0 4 7 6 7 6 3 4 1 2 5 3 6 6 3 3 3 0 0 4 2 3 0 3 2 1 3 1 5 7 3 0 0 4 1 3 6 5 6 0 1 1 6 2 3 5 6 3 4 4 5 7 7 8 8 8
16 15 15 15 15 15 14 14 15 15 15 15 15 15 15 15 15 15 13 13 13 13 12 12 12 7 5 7 11 11 3 2 1 2 3 4 2 1 3 3 2 3 4 5 5 7 6 4 4 1 3 2 2 3 3 3 0 2 1 3 4 4 8 4 6 4 4 4 5 4 1 4 1 6 7 5 2 4 5 5 4 5 5 5 5 5 5 11
16 16 16 16 15 15 14 14 15 15 15 15 15 15 15 15 15 15 13 12 12 13 12 12 8 4 7 14 12 6 6 4 2 7 6 0 0 1 3 3 4 6 6 6 4 6 8 7 3 1 1 0 2 3 1 1 3 1 1 2 2 2 7 12 3 2 5 3 7 5 7 8 9 10 8 3 3 3 3 4 5 5 6 5 5 6 7 6
17 17 17 16 16 15 15 15 15 15 15 15 15 15 15 15 15 15 14 13 12 12 10 12 6 6 8 11 2 3 13 6 5 10 9 6 4 4 5 3 4 5 4 6 3 4 7 5 5 2 1 1 2 3 4 4 1 5 2 1 5 2 8 4 8 6 7 2 7 5 11 5 6 9 9 4 4 7 6 7 7 7 6 6 6 6 8 10
17 17 17 17 17 16 15 15 14 14 14 15 15 14 14 15 14 15 13 12 11 10 9 8 5 6 8 7 2 7 8 4 5 13 11 8 7 6 1 5 6 3 4 4 1 2 6 5 4 4 3 1 1 3 5 2 2 1 4 8 3 10 3 2 3 12 13 1 5 6 10 10 6 9 7 6 4 5 7 8 7 7 7 7 6 8 8 10
18 18 18 18 18 17 15 15 15 15 15 14 14 14 14 12 12 13 14 10 10 9 3 4 2 6 9 12 3 3 3 4 5 8 5 6 5 8 2 5 5 2 1 2 3 3 3 6 7 3 2 1 3 3 3 1 2 2 8 3 8 5 7 3 4 8 13 5 2 13 7 1 6 10 8 4 7 5 8 9 7 7 8 7 7 7 7 7
18 19 19 19 18 18 17 15 15 15 15 14 14 13 13 12 11 8 9 7 2 2 1 2 1 3 7 1 3 1 3 3 2 1 1 4 6 5 1 3 2 2 2 4 2 3 3 7 3 1 3 4 2 4 1 5 5 7 5 10 4 11 3 8 2 1 5 8 7 5 6 4 1 4 8 4 7 8 8 10 10 9 8 8 7 6 7 8
20 20 19 19 18 18 17 17 15 15 15 14 12 5 4 7 7 4 3 2 1 1 4 6 4 3 10 9 7 4 0 2 3 4 3 1 6 4 3 1 1 1 2 1 1 6 5 6 6 6 5 5 5 8 13 16 16 13 10 6 6 2 7 6 4 3 5 4 7 5 11 10 6 4 4 7 4 7 11 12 12 11 8 6 6 7 8 8
20 20 20 19 19 18 17 17 16 15 14 14 7 5 1 3 1 2 2 1 2 3 3 6 7 12 4 2 4 1 2 5 3 5 2 5 1 3 3 1 1 2 3 5 2 7 3 2 3 6 13 12 15 17 19 16 6 7 10 14 9 10 6 9 4 2 10 6 9 9 12 11 10 11 11 6 4 7 11 9 8 6 5 6 6 7 7 8
20 20 20 21 20 19 18 17 16 16 14 4 2 0 1 2 1 2 3 5 8 8 3 1 10 5 5 1 2 3 0 1 4 3 3 3 9 5 3 3 1 2 5 7 3 8 4 11 11 14 16 18 17 15 12 3 2 6 4 4 4 6 4 2 4 2 3 4 12 15 14 9 13 14 14 12 4 5 6 7 8 8 8 8 8 9 10 9
21 21 21 21 20 20 19 18 16 15 15 3 4 2 4 5 3 5 3 5 7 9 11 12 6 8 8 2 1 1 1 1 1 2 4 2 5 10 3 6 3 9 9 8 6 2 8 13 14 16 18 14 14 12 8 3 3 1 3 5 5 4 8 4 5 4 3 7 7 9 9 14 13 10 14 10 7 11 10 10 10 11 11 10 9 9 9 11
20 21 20 21 20 20 20 19 18 16 7 4 5 5 0 2 1 1 2 3 3 10 12 14 9 11 7 8 1 2 2 0 3 3 1 6 5 10 3 7 9 12 6 5 4 7 10 14 16 19 12 6 6 10 11 12 11 2 1 2 4 7 1 2 3 2 0 3 9 1 9 13 10 9 9 9 12 10 10 12 12 13 12 9 8 9 10 7
19 20 21 20 20 21 21 21 19 15 4 5 5 5 3 1 3 3 4 2 8 4 8 10 9 13 16 5 2 3 4 4 6 4 5 5 5 8 7 8 11 9 5 8 11 8 11 11 18 9 7 10 9 9 9 7 5 7 6 4 8 3 7 6 5 1 1 6 1 3 8 9 5 6 11 13 10 7 8 10 10 7 9 11 11 12 12 11
20 19 19 19 18 20 20 19 17 10 6 7 9 8 1 6 5 4 1 3 4 3 6 7 11 10 13 10 3 8 6 3 3 5 4 5 8 4 5 11 12 9 11 12 16 13 13 0 3 7 8 13 12 7 8 9 11 10 9 7 7 2 7 7 3 3 1 2 1 3 8 9 6 10 7 9 7 6 8 7 8 10 8 9 8 8 8 11
21 20 18 18 18 16 17 12 8 6 4 9 9 4 6 6 5 4 0 4 3 5 4 2 4 5 7 3 5 7 5 4 7 2 6 9 6 3 5 3 4 11 11 14 11 14 16 11 4 12 13 10 11 10 13 11 12 11 12 13 9 2 4 1 0 3 2 6 3 4 4 12 9 12 14 9 3 7 6 9 13 14 12 9 12 13 11 9
23 20 18 16 16 16 5 3 5 6 8 10 5 9 6 6 5 5 4 3 6 2 3 6 5 9 7 4 6 5 3 8 6 4 7 8 4 4 4 4 5 13 16 10 11 7 12 6 4 6 9 10 13 12 12 11 11 10 10 13 6 3 4 4 3 3 4 8 4 1 11 11 2 5 9 8 11 18 6 10 15 13 12 10 11 11 12 12
23 21 19 17 15 13 2 5 4 9 10 6 8 10 7 9 6 9 2 3 7 5 7 3 7 2 5 9 11 12 12 10 6 3 7 6 10 1 8 8 3 2 2 2 1 10 3 10 8 6 6 12 11 12 11 15 11 13 1 7 6 7 7 5 6 7 3 0 2 1 4 10 13 9 4 7 12 15 12 14 14 11 10 11 11 11 12 13
22 20 18 17 15 11 5 2 8 10 9 5 12 11 10 10 8 4 2 4 4 5 4 5 5 1 3 9 15 14 2 4 5 3 11 8 7 1 2 9 12 12 5 8 16 1 8 9 11 10 8 8 13 14 12 15 12 4 6 13 13 12 3 4 5 5 3 1 5 1 2 5 10 6 2 7 7 12 15 14 14 13 12 13 13 13 13 15
21 20 18 16 14 14 7 7 8 10 5 8 11 12 9 9 6 5 4 5 3 3 4 3 2 3 2 9 11 10 5 2 6 1 3 4 5 2 8 9 7 3 2 7 12 8 3 4 8 7 8 8 7 10 7 13 13 5 9 8 5 7 5 8 4 5 1 3 10 7 4 8 16 6 5 3 8 17 17 12 13 12 13 15 15 16 15 12
21 20 19 16 10 1 5 3 6 2 9 11 12 13 12 10 4 3 3 7 3 2 2 2 2 3 7 11 9 11 10 2 4 3 8 7 12 0 1 1 5 4 5 1 7 7 1 1 4 6 10 10 7 2 6 14 9 4 6 5 3 6 8 2 3 3 0 9 11 10 8 8 13 11 10 10 10 12 6 4 7 5 9 13 12 13 13 12
20 20 19 15 6 4 6 7 5 7 12 13 14 15 11 3 5 4 9 3 5 5 2 2 4 7 12 15 11 6 7 5 4 8 7 5 10 6 1 3 2 4 1 3 6 10 6 1 0 2 2 1 3 5 2 2 1 11 5 6 6 1 3 3 1 3 11 13 11 13 13 11 14 12 6 7 4 7 11 13 8 9 12 12 12 13 13 12
20 20 20 10 6 7 8 5 8 6 7 14 16 12 9 7 4 7 3 3 1 1 4 4 1 7 13 13 7 13 11 5 5 9 11 9 9 12 11 10 10 8 11 13 13 8 11 12 2 2 2 6 4 5 1 3 3 1 6 9 12 5 5 7 5 11 13 13 7 8 10 4 19 20 2 5 6 6 6 7 9 11 13 14 15 15 14 13
20 18 17 8 8 5 4 5 10 8 10 13 12 7 5 6 12 9 4 4 3 3 4 1 8 11 9 10 9 10 10 13 6 4 12 11 12 15 14 12 11 8 7 11 11 6 5 3 3 3 3 3 4 11 5 3 4 6 10 11 10 8 8 8 8 4 4 4 1 4 10 12 5 16 15 22 15 6 7 8 8 8 9 9 9 9 9 8
20 15 8 7 8 6 5 8 9 14 13 11 10 8 7 7 7 8 10 3 4 1 1 0 3 8 12 10 8 10 7 5 13 9 10 4 9 10 11 5 5 5 3 5 12 9 6 9 9 8 10 8 9 10 11 5 11 12 5 11 11 8 4 7 7 9 6 4 2 2 5 5 9 9 1 12 14 19 21 13 9 7 9 10 9 6 6 6
12 9 7 3 4 0 6 7 12 16 12 5 12 13 15 11 6 7 6 6 4 1 1 1 4 10 8 9 3 10 8 7 6 8 11 9 9 8 10 11 10 6 2 7 4 3 13 10 5 17 7 8 8 5 1 4 3 5 4 3 6 13 2 5 2 5 4 2 3 5 8 5 12 4 3 4 3 4 5 11 17 16 11 8 10 11 9 6
2 1 4 3 4 2 5 5 10 11 12 8 10 11 14 11 9 6 6 8 1 2 1 2 2 3 4 7 4 11 4 3 7 8 6 11 8 11 11 9 13 14 11 12 6 8 5 11 4 2 9 12 14 11 5 6 8 5 4 9 9 5 9 1 4 0 2 2 9 4 5 7 8 16 11 11 1 5 5 6 9 14 18 15 14 12 7 7
5 6 5 2 1 3 6 8 10 11 9 9 11 11 4 2 2 7 3 9 9 8 1 5 2 6 3 6 6 10 8 4 6 10 8 7 8 12 11 8 10 12 13 10 3 1 10 11 2 4 5 4 1 5 6 7 1 2 10 7 4 4 4 5 8 3 4 6 5 10 13 8 5 13 2 9 12 10 6 8 11 12 11 11 12 10 10 6
4 3 4 2 4 6 7 8 13 10 7 9 13 18 2 6 1 4 1 4 5 6 5 6 3 5 3 5 5 8 8 11 6 11 10 11 5 12 13 7 11 13 17 10 6 3 5 6 2 5 7 2 5 7 1 1 1 9 4 4 6 6 9 1 0 10 3 7 6 8 10 11 11 14 0 2 10 10 7 8 7 9 9 12 14 10 5 1
4 3 1 3 4 9 8 10 10 8 5 7 11 13 2 3 2 3 2 3 2 5 8 5 5 3 4 5 4 5 11 12 9 8 9 5 8 8 15 11 8 17 16 9 6 2 2 7 3 3 4 4 5 7 13 11 1 1 2 2 1 3 5 9 9 2 4 10 6 7 5 9 9 9 9 5 6 8 8 7 8 12 12 11 9 5 4 5
5 2 1 3 4 8 8 11 7 7 8 12 10 8 1 4 3 7 6 5 1 6 5 8 6 3 3 4 3 7 12 14 11 8 9 2 7 2 16 12 5 11 12 10 6 2 1 2 8 2 2 3 9 7 12 13 12 5 7 3 3 2 2 3 2 9 5 4 10 8 10 3 8 5 6 8 7 9 11 11 10 11 9 5 5 5 4 2
3 4 1 2 2 7 9 9 5 9 9 5 2 3 1 3 1 4 9 9 3 4 3 3 5 8 6 4 5 1 3 10 9 8 7 4 10 5 8 12 10 10 10 7 8 1 2 5 10 3 4 7 5 9 11 10 9 9 10 11 10 8 8 5 6 2 3 7 4 7 13 1 2 1 4 8 5 8 9 6 7 4 1 3 3 3 2 1
2 2 1 2 5 10 8 10 5 4 3 8 7 3 1 2 1 3 4 2 7 4 0 1 0 5 5 7 6 4 2 2 7 9 6 9 7 7 2 9 8 10 13 11 15 5 5 2 2 5 4 8 3 1 2 1 4 10 12 11 8 6 5 8 7 3 1 5 2 1 2 7 5 1 2 4 4 5 4 2 5 4 4 3 2 2 1 1
2 2 4 3 5 9 6 5 4 5 5 1 3 2 0 1 2 2 4 1 4 1 1 2 4 3 3 3 2 4 9 4 5 8 6 10 9 7 4 7 10 12 11 6 4 2 1 1 4 3 2 1 0 1 2 2 3 1 5 6 6 11 11 12 9 1 3 1 7 5 6 1 1 2 2 3 4 5 4 4 6 4 1 0 0 0 1 3
2 1 2 3 3 5 5 6 6 7 7 3 1 2 3 1 3 2 5 5 5 2 4 2 2 1 1 1 1 2 8 5 8 11 8 3 5 4 8 7 14 9 14 10 14 13 9 5 7 3 1 1 2 3 2 2 0 5 5 9 11 9 9 2 3 2 1 4 4 7 11 6 2 3 2 2 3 2 3 2 2 4 1 0 1 1 1 2
1 1 0 3 5 2 4 1 3 3 7 3 4 6 4 3 4 3 6 5 0 2 2 2 2 3 1 3 3 1 3 9 1 8 6 2 4 1 7 12 12 7 8 2 6 7 8 3 11 9 11 10 9 11 12 10 11 6 1 5 7 11 10 6 11 7 7 3 5 4 5 5 4 4 2 2 4 4 3 4 3 1 2 4 2 2 2 3
0 0 4 2 2 3 2 2 0 2 1 3 6 7 3 5 1 2 4 3 3 2 1 2 1 2 3 3 3 4 5 4 6 2 7 7 3 1 4 10 13 9 9 7 9 10 5 3 5 13 13 14 14 5 3 8 6 4 3 9 8 8 12 12 7 10 14 2 6 3 3 5 8 8 6 5 3 3 6 5 2 1 1 0 1 4 4 3
1 1 0 2 2 1 2 0 1 1 2 3 5 3 9 6 1 1 1 4 4 3 1 0 4 3 3 3 4 4 7 4 7 7 8 7 3 2 3 8 9 10 10 6 5 3 2 7 8 11 17 15 7 3 6 12 9 9 11 11 9 8 9 11 12 15 5 7 17 5 6 5 10 9 11 10 7 4 3 3 2 1 2 3 3 2 1 1
1 2 1 1 1 2 1 5 6 6 4 1 3 2 7 10 6 5 1 2 1 3 4 2 1 5 8 8 4 3 4 6 6 8 6 3 3 2 2 3 5 9 13 4 5 4 4 7 14 9 14 16 10 3 4 6 10 10 12 10 10 9 10 16 16 15 11 12 13 9 7 12 18 13 13 14 15 14 10 6 5 3 2 3 3 4 4 5
1 1 2 1 1 2 3 2 5 9 9 6 2 3 4 9 9 4 2 2 1 3 4 4 5 8 7 5 5 4 4 2 7 9 6 5 9 3 3 2 4 3 11 5 9 5 5 8 8 9 16 13 5 5 3 6 4 5 10 13 13 12 14 14 14 13 14 11 7 11 6 14 15 7 8 12 4 2 3 0 1 3 5 6 6 6 7 6
2 1 2 0 3 4 5 2 3 6 7 9 6 5 6 10 11 4 2 5 4 4 1 7 6 8 8 9 9 7 9 10 4 1 4 5 2 4 7 7 4 1 3 9 7 3 9 9 8 6 8 11 9 7 5 6 6 8 6 7 8 10 13 15 14 13 12 12 13 14 10 11 7 3 5 2 0 2 1 1 4 7 7 8 7 7 8 9
1 3 1 2 3 3 2 2 3 4 4 2 5 4 1 3 6 5 3 4 7 7 6 14 5 2 4 8 10 14 11 12 8 11 2 6 11 6 8 3 6 6 7 5 1 0 7 4 2 5 7 9 5 10 12 6 4 5 6 4 5 5 8 8 11 11 11 13 14 14 14 13 12 9 8 5 2 5 6 5 6 7 9 8 9 11 11 12
0 2 1 1 2 3 2 1 1 0 4 4 6 5 3 6 5 3 4 4 5 6 7 8 6 7 3 7 15 17 12 11 12 7 6 6 8 3 7 2 8 11 8 10 2 5 5 3 4 4 7 12 2 8 6 3 3 9 15 13 13 11 13 11 13 11 13 13 12 12 14 15 17 9 10 10 7 6 5 6 8 10 6 7 10 10 10 9
Wind_Direction
304 305 304 305 302 302 302 301 299 299 301 301 302 299 297 296 301 298 293 287 280 282 287 287 293 295 301 307 314 318 330 330 318 301 270 243 244 242 260 276 284 287 319 354 345 6 340 341 349 342 356 8 278 340 251 40 146 69 146 119 196 203 144 213 185 192 171 239 291 214 197 145 204 174 199 129 39 84 349 223 303 297 261 237 269 301 119 134
298 299 302 302 302 301 300 298 298 296 297 297 298 298 296 295 299 297 300 294 286 277 286 286 283 288 297 305 314 325 347 317 297 282 257 255 238 238 252 260 268 276 332 349 24 352 342 335 336 355 32 252 356 238 37 215 124 128 115 121 226 178 238 161 201 203 124 263 237 209 151 168 212 148 216 138 277 80 154 266 11 303 294 351 16 99 128 143
298 297 298 302 303 302 300 298 296 296 294 294 294 296 295 294 293 296 296 300 292 285 269 273 278 286 293 304 312 334 354 307 298 285 282 241 231 229 231 235 247 255 239 264 222 137 308 292 305 344 351 260 332 223 351 243 144 220 126 220 242 208 236 216 209 217 199 188 255 196 207 169 217 154 120 193 173 93 193 208 312 252 241 232 332 130 143 151
298 298 298 297 299 299 297 299 297 296 295 295 295 294 294 292 291 294 293 293 293 286 276 276 286 279 288 301 327 1 351 307 296 253 298 332 242 223 223 223 226 238 166 187 163 184 147 322 326 11 317 181 291 34 185 232 142 248 128 204 224 200 181 258 192 239 236 175 193 205 82 170 225 199 155 165 110 254 263 234 183 205 216 194 189 162 162 162
295 295 296 297 297 298 298 298 298 297 295 294 294 293 293 293 290 288 292 290 293 285 277 263 277 289 275 300 10 42 317 358 269 214 24 36 30 234 223 228 242 279 171 124 98 78 124 229 342 3 76 246 342 25 243 261 203 119 206 202 176 134 190 247 194 203 158 160 113 107 128 215 89 85 132 151 166 217 211 230 215 217 181 158 173 183 167 176
300 296 293 293 294 296 297 297 297 296 296 295 293 291 288 288 291 288 288 292 290 291 279 273 263 267 274 86 58 20 73 233 272 249 220 35 28 31 30 17 330 197 128 138 159 120 124 336 99 5 287 121 212 182 261 200 153 212 270 234 211 196 167 255 172 202 156 116 126 134 232 90 161 189 197 176 189 229 218 219 216 213 182 170 153 151 175 185
296 293 293 291 292 294 295 296 295 295 293 294 291 292 291 290 287 286 284 286 289 289 286 269 258 272 281 85 67 176 220 266 12 250 292 344 5 21 356 335 309 151 153 145 156 154 153 193 149 228 116 267 277 211 259 219 292 227 227 173 220 203 217 214 217 124 131 116 220 212 47 170 157 198 157 195 240 227 225 257 246 178 133 142 151 182 180 190
295 294 291 291 291 291 290 291 293 293 292 290 289 288 289 289 289 287 285 286 289 285 284 269 264 247 248 124 110 224 231 240 250 267 281 318 329 358 340 342 58 133 164 184 161 191 124 188 195 141 226 177 230 173 253 205 186 211 240 197 250 180 233 229 239 250 211 249 289 106 155 234 179 192 118 241 242 253 343 62 98 128 133 152 170 181 192 195
294 291 288 288 289 289 289 288 287 287 286 286 286 285 286 286 283 284 284 283 283 286 279 275 257 254 246 148 177 242 240 251 257 269 297 310 308 347 20 337 86 138 191 184 191 181 156 233 201 189 259 279 226 187 283 169 273 211 229 168 218 207 223 223 220 258 242 263 157 130 244 282 220 71 197 231 247 246 124 72 110 122 138 169 190 193 190 197
295 292 290 286 286 286 286 285 285 284 283 282 283 283 280 281 282 283 282 283 283 284 285 283 271 251 238 199 161 238 244 184 239 257 266 332 340 343 33 321 181 145 150 208 178 171 190 188 179 214 145 274 173 224 34 196 229 200 229 212 214 238 230 92 187 237 244 199 162 191 247 260 9 98 263 262 219 135 78 94 120 149 176 191 195 201 209 202
291 292 290 288 286 286 285 286 285 283 281 281 279 279 279 279 280 280 282 280 281 281 280 273 268 252 233 208 206 233 167 72 147 55 62 49 34 32 4 348 284 172 195 194 204 189 180 159 178 41 126 223 59 288 219 221 333 318 214 294 279 285 299 110 283 247 105 269 183 180 231 214 310 76 222 245 157 177 138 145 164 189 198 202 210 207 213 222
292 290 287 285 284 284 284 284 284 284 282 281 281 279 277 279 281 281 281 282 281 280 271 273 268 254 242 227 215 220 182 130 58 83 18 46 22 298 284 249 243 225 174 209 211 191 179 177 122 139 209 13 270 306 286 289 344 284 150 238 281 286 280 209 207 217 160 246 155 166 321 276 197 221 233 232 125 173 159 172 197 209 218 220 219 222 217 224
291 290 288 284 282 282 284 283 284 283 282 281 281 280 277 274 274 275 276 278 278 282 285 281 288 256 262 250 237 211 290 167 8 322 310 2 280 249 240 263 244 234 211 203 210 197 179 172 160 214 229 80 251 175 301 24 276 95 46 148 323 274 258 238 180 125 148 240 145 142 248 214 224 230 242 207 132 128 141 201 213 222 224 227 220 221 232 234
290 289 287 286 283 282 281 282 281 282 282 282 281 281 279 277 273 272 274 272 277 284 292 287 269 243 238 252 346 238 227 246 315 304 279 297 351 309 336 310 252 238 215 216 239 165 177 179 170 197 75 162 268 286 1 343 18 193 227 83 211 146 247 240 183 168 179 203 172 155 240 210 241 236 235 224 154 159 196 219 214 220 225 224 221 223 228 234
287 286 286 285 284 281 279 278 279 280 280 281 281 281 280 275 279 275 270 275 278 290 312 327 270 272 244 266 59 234 102 83 202 238 247 257 267 326 330 342 351 299 218 215 173 180 163 150 146 207 244 225 260 357 312 2 346 246 144 232 241 203 289 286 198 162 192 238 173 140 250 230 233 249 238 221 166 173 211 221 223 220 224 225 223 226 232 238
286 285 283 282 282 281 278 276 276 275 275 277 279 280 282 286 283 293 299 303 295 310 344 325 237 226 285 280 221 4 106 164 225 232 242 199 225 229 228 337 305 296 165 101 115 150 207 155 193 158 190 79 185 111 17 20 280 287 206 226 211 214 232 322 225 204 195 155 235 189 221 2 265 239 252 218 178 182 211 231 225 226 229 229 227 226 233 251
284 282 281 281 281 278 277 275 273 272 271 272 277 280 289 297 301 302 295 294 325 72 297 261 335 177 242 142 12 210 230 233 161 69 160 178 191 191 158 354 333 359 37 54 86 153 165 189 132 156 198 193 146 135 205 252 263 234 211 222 192 210 165 234 332 260 222 175 210 245 236 219 245 233 234 237 186 188 213 232 231 225 225 223 225 232 234 237
283 279 278 279 278 277 274 273 271 269 270 271 272 298 334 343 310 341 323 337 291 193 231 240 273 311 261 247 255 238 261 139 208 184 95 280 167 161 161 170 315 343 96 26 156 206 180 192 172 200 148 172 165 170 196 216 204 200 198 223 259 281 214 218 142 257 138 267 220 205 233 229 259 289 272 233 192 196 212 220 228 226 224 224 225 233 239 241
286 282 278 275 275 273 271 269 268 269 268 272 305 338 352 265 263 137 210 162 183 203 208 201 173 203 188 38 314 24 276 204 110 142 231 107 128 129 129 106 64 296 229 184 226 193 191 165 165 180 196 179 201 197 203 221 198 197 188 212 208 203 216 212 234 268 161 206 230 213 222 223 235 247 252 261 185 194 221 235 252 260 249 242 234 236 238 240
283 281 279 275 272 267 264 265 265 265 265 278 69 28 355 7 356 316 209 201 225 230 296 51 209 262 314 304 12 261 239 62 146 240 145 189 117 136 160 138 101 252 226 203 163 209 153 205 194 200 204 204 205 209 224 49 146 210 218 237 213 214 275 298 261 247 244 198 218 221 231 222 224 225 238 237 208 214 235 240 241 247 245 240 239 236 237 238
292 288 284 277 270 264 260 259 259 260 256 189 112 96 234 181 169 251 203 234 218 222 238 256 214 227 250 106 304 42 131 245 243 237 188 150 124 127 217 149 186 230 224 222 204 123 186 216 214 213 214 205 203 203 222 262 289 133 167 206 241 172 231 222 193 247 229 186 246 229 240 237 229 224 235 236 224 231 220 227 231 237 237 238 236 243 239 240
297 291 286 280 271 263 259 255 253 252 261 105 169 207 226 197 151 150 42 298 238 215 223 235 244 257 256 253 249 284 29 78 279 297 300 135 179 163 219 170 186 218 200 223 235 215 212 219 221 220 215 195 190 198 207 215 229 34 132 227 217 226 276 307 243 251 323 150 254 199 234 245 241 233 246 240 227 230 219 218 219 214 230 238 242 248 254 258
301 295 288 283 274 263 257 252 248 241 140 149 198 213 230 170 82 88 84 312 283 211 218 228 229 242 251 237 183 22 349 240 234 209 186 165 158 205 151 166 199 209 216 196 216 208 228 225 233 227 189 193 204 197 199 224 250 232 227 198 225 173 175 253 261 188 232 177 225 233 247 265 268 246 239 242 228 233 234 233 238 222 225 231 233 234 241 246
306 300 290 283 278 267 259 253 251 257 188 192 211 198 163 111 101 73 69 206 281 258 200 208 209 227 235 221 175 182 209 253 215 226 199 169 170 173 157 184 197 197 214 209 218 226 226 330 237 163 183 195 197 183 187 202 227 227 225 232 239 155 207 215 238 209 243 298 94 307 298 277 220 244 243 249 243 247 249 258 260 256 236 241 252 259 243 243
307 304 295 283 277 273 265 276 256 206 200 212 218 169 150 141 118 114 18 301 262 274 179 276 176 239 234 71 133 153 179 269 253 240 182 173 158 130 217 170 173 211 209 212 222 231 243 242 141 180 197 187 183 189 198 193 224 230 226 215 224 156 200 67 303 127 240 266 212 152 297 261 235 221 230 228 236 234 232 230 239 239 239 229 239 242 247 245
305 303 296 284 275 272 245 267 202 169 195 219 149 155 133 106 119 117 129 236 279 220 78 232 135 250 121 212 135 154 105 235 219 218 179 204 196 167 142 199 168 208 209 208 219 241 240 227 170 209 197 180 191 202 200 186 219 222 226 201 194 169 188 177 188 136 219 223 273 94 219 268 34 227 221 220 226 237 213 220 233 232 235 232 232 235 240 242
298 299 295 286 275 271 217 242 136 151 207 206 141 141 142 114 118 87 64 245 265 170 172 191 149 264 148 161 151 126 214 230 203 153 193 197 193 179 171 184 190 305 169 153 190 227 191 221 204 197 201 188 193 208 193 185 206 232 157 131 138 188 191 195 180 198 241 291 315 52 210 256 272 256 233 217 226 242 236 235 238 234 234 238 234 228 233 238
292 291 289 281 271 256 183 140 161 180 204 136 142 139 123 121 96 74 78 282 271 97 151 205 207 92 128 164 154 175 173 83 88 241 190 185 182 322 125 199 196 191 172 163 217 54 206 215 211 201 197 206 206 204 187 184 201 218 127 147 194 196 154 128 156 211 215 75 271 306 12 277 251 264 210 176 236 253 244 235 237 236 233 238 242 236 231 232
286 285 283 276 263 256 172 184 183 196 147 153 134 129 129 104 95 136 189 232 243 87 270 39 27 70 82 149 174 198 167 128 145 68 89 152 198 143 204 212 198 138 356 188 213 226 24 222 216 196 207 221 221 222 180 172 207 219 161 167 164 154 176 174 185 170 290 191 230 200 166 234 269 234 183 244 216 241 242 228 237 233 230 234 236 242 241 239
280 279 278 270 268 271 173 203 207 139 145 138 131 126 118 107 85 138 231 242 56 285 52 315 204 216 151 148 184 194 178 202 132 107 164 179 203 226 303 117 135 121 197 285 248 237 199 247 256 176 208 216 204 222 194 195 201 112 132 92 119 160 180 176 161 128 71 236 232 204 197 190 269 236 208 187 211 231 258 252 233 234 239 243 241 241 242 237
274 270 270 260 208 191 146 210 171 157 148 141 136 122 107 96 175 182 218 227 71 233 51 139 194 126 160 155 184 185 197 172 152 142 173 191 200 201 169 66 59 119 134 264 258 249 253 330 231 255 22 118 139 206 13 325 256 156 165 131 101 344 64 136 327 137 223 240 228 204 198 182 229 254 202 218 248 220 218 236 226 229 230 231 236 234 237 238
273 265 261 249 171 145 179 186 159 145 147 137 131 130 134 191 171 203 203 59 4 243 168 185 165 154 180 189 173 166 179 191 186 178 176 188 181 189 198 182 159 174 199 202 227 218 237 230 210 333 271 163 169 171 312 42 185 260 119 136 182 206 146 226 151 202 207 225 226 188 167 234 230 247 189 272 270 274 256 236 230 222 226 225 227 227 224 226
269 255 253 224 153 164 195 158 138 146 150 149 126 138 152 201 218 178 220 170 261 142 267 76 162 169 177 181 215 188 185 184 156 256 191 193 191 200 202 189 182 175 188 196 227 224 271 231 208 255 289 199 188 189 120 211 228 207 173 164 183 191 194 206 198 220 251 249 220 120 179 227 277 277 238 254 244 252 252 238 236 240 246 256 254 250 247 246
266 248 235 181 192 174 159 145 146 144 159 163 147 156 179 197 224 168 201 224 218 321 326 276 171 160 166 186 202 168 216 249 180 182 193 163 194 200 201 222 188 177 91 154 197 192 234 246 224 162 233 162 197 214 191 186 167 200 196 185 198 190 182 205 190 202 203 209 357 188 109 227 168 233 320 226 234 232 242 247 248 235 241 247 260 272 272 262
266 240 174 140 152 258 146 149 151 153 143 189 167 177 196 202 188 186 202 208 252 269 183 219 102 166 203 207 164 180 185 209 198 182 197 178 190 191 186 199 211 182 159 148 212 202 219 240 254 201 196 161 194 210 93 109 130 208 220 225 207 215 205 237 182 181 164 121 145 197 205 188 226 302 303 247 343 295 266 243 244 247 241 249 262 256 251 249
243 65 84 140 165 200 128 140 147 138 142 174 204 208 195 178 189 159 224 188 125 210 172 68 109 178 213 197 202 186 164 98 203 199 204 205 190 195 192 198 197 188 181 194 159 197 170 243 170 125 205 171 184 183 179 169 202 177 162 218 216 6 223 290 358 242 74 174 231 148 276 280 323 280 255 271 295 282 280 262 250 246 248 240 245 252 262 255
121 125 141 152 162 148 141 146 154 148 156 181 216 229 217 304 222 172 179 169 197 186 98 217 234 163 205 217 194 185 205 183 206 202 218 164 221 202 193 210 198 201 212 181 234 212 172 225 248 101 216 269 230 157 157 204 154 140 206 212 81 48 96 163 222 221 200 209 240 173 221 247 199 271 303 219 217 233 242 236 241 241 254 261 254 248 246 249
120 117 93 139 212 147 146 154 163 166 148 185 215 228 97 213 272 194 60 116 66 155 187 182 259 161 216 182 233 194 184 192 186 186 226 171 281 176 188 199 197 201 210 216 189 255 137 260 284 209 199 150 93 95 131 299 302 202 180 358 175 206 238 141 253 225 156 215 237 220 206 231 191 240 236 217 217 222 232 245 256 263 253 248 252 251 265 237
56 77 34 235 152 149 157 154 165 159 178 198 226 226 212 242 133 174 221 132 99 122 195 235 198 224 205 204 201 207 182 204 181 198 195 212 213 182 189 177 202 203 210 181 217 249 173 206 285 342 103 170 134 149 212 188 258 21 64 92 209 15 253 193 197 307 168 234 213 246 162 237 199 228 229 214 225 210 223 244 242 242 242 241 254 270 254 231
129 74 258 328 154 141 144 154 159 165 192 218 218 231 131 177 215 200 231 158 196 158 218 215 201 231 203 225 140 210 201 208 176 199 202 174 205 202 193 188 178 198 193 190 206 98 234 150 244 299 313 154 182 178 214 204 188 167 197 192 141 200 295 35 254 210 184 202 224 245 242 270 246 212 182 206 208 197 208 223 231 238 250 247 238 236 239 220
19 110 270 327 148 127 135 143 165 205 210 234 328 260 12 232 199 199 195 206 196 12 187 199 168 204 199 195 225 181 298 207 208 206 192 214 186 220 201 186 193 182 163 191 209 248 138 185 213 156 172 193 214 189 218 216 182 191 196 210 196 180 226 216 242 176 189 205 218 216 247 254 278 189 214 214 227 202 221 230 246 274 288 239 273 293 304 191
109 65 1 347 159 147 147 183 200 150 211 225 226 173 252 187 148 219 184 247 206 205 323 96 318 208 211 224 226 156 137 300 236 218 212 214 219 219 294 196 187 148 161 187 198 195 172 134 125 199 195 206 222 349 32 85 156 190 190 225 188 205 211 232 242 234 30 232 233 192 306 264 242 251 240 249 268 261 262 257 256 265 258 285 309 326 42 108
21 133 287 0 196 147 133 223 199 214 222 238 15 302 196 282 179 222 190 236 196 133 134 174 199 159 255 218 208 182 173 213 209 235 210 215 229 199 238 176 143 161 159 191 156 251 283 110 134 299 276 340 357 334 38 42 122 275 239 213 157 204 201 225 241 249 213 140 225 231 241 231 4 255 240 262 264 267 265 221 247 264 284 299 300 56 114 104
20 48 336 355 268 171 130 199 215 212 249 339 146 245 317 237 164 171 210 208 183 201 178 172 6 239 158 74 91 213 162 224 205 224 265 270 266 222 137 148 160 173 168 194 184 176 186 197 177 171 5 163 269 270 284 335 227 204 202 210 208 197 201 151 66 59 332 233 204 200 241 254 276 334 313 2 353 342 325 299 205 247 253 241 141 162 146 131
97 327 27 330 11 194 181 179 194 229 234 237 240 240 238 265 226 220 196 206 211 168 133 243 185 145 177 166 176 358 242 211 326 232 229 287 249 117 173 162 181 186 210 167 150 134 199 193 183 198 198 200 212 205 208 193 202 202 263 208 212 198 188 146 235 209 243 223 193 196 240 244 289 330 349 351 9 342 346 350 352 205 189 164 142 168 188 179
352 50 302 359 48 15 9 323 86 156 229 237 242 234 185 222 284 304 160 223 164 164 144 135 332 128 157 141 165 185 216 224 226 281 203 225 235 269 214 177 171 193 204 144 159 151 198 190 195 212 213 216 220 217 36 79 61 195 220 198 207 197 198 209 233 236 231 230 259 210 242 308 303 295 302 304 9 2 325 336 340 348 18 301 185 178 191 200
212 80 128 304 351 54 249 83 254 147 228 189 226 164 204 207 206 287 179 203 222 159 71 137 181 154 218 168 200 215 210 211 208 265 248 221 233 239 312 196 182 183 151 154 164 89 73 212 219 222 227 232 224 156 189 147 178 199 197 216 207 193 187 199 206 233 217 245 251 207 214 255 255 264 275 286 289 275 255 254 258 213 212 209 203 203 220 247
38 268 113 211 150 242 163 254 218 232 256 171 266 291 198 180 182 181 37 290 275 221 153 312 304 204 170 172 142 200 171 195 197 224 245 251 185 262 146 215 199 184 155 167 166 173 164 204 219 202 238 235 222 188 200 183 178 189 203 208 204 191 182 200 216 225 215 227 242 243 209 229 253 241 262 276 276 277 258 236 219 191 155 168 165 185 200 217
114 204 202 284 253 256 212 240 203 207 219 201 251 223 220 206 212 197 144 104 142 247 192 215 222 212 192 154 141 213 156 175 234 219 204 199 210 148 194 46 256 208 182 176 177 193 162 239 217 194 237 241 231 219 168 187 219 213 205 206 202 183 196 204 219 221 221 232 233 250 196 230 245 256 218 248 259 230 251 255 108 139 197 192 189 189 204 211
327 6 312 295 220 266 265 236 214 197 214 199 214 227 214 209 213 196 226 154 188 248 213 230 217 202 196 187 189 207 202 211 226 206 216 193 298 226 220 193 134 85 200 195 185 266 183 228 179 157 227 238 219 221 214 196 190 221 233 223 211 198 198 202 210 220 220 233 238 248 242 245 255 244 254 270 74 116 77 215 213 204 208 201 194 197 206 212
210 176 186 286 291 251 221 237 231 209 217 224 225 275 245 256 229 207 227 194 182 186 189 217 190 156 213 200 208 223 212 211 217 231 149 193 223 211 200 242 148 157 191 212 172 335 178 268 53 132 199 250 200 202 219 213 216 243 259 248 203 187 208 211 212 212 201 213 223 235 248 252 256 229 245 239 197 185 193 208 222 222 214 202 197 201 203 208
206 272 187 193 238 254 254 269 191 87 230 222 190 216 203 237 210 179 257 237 224 202 195 202 199 175 221 205 219 219 208 208 213 213 178 222 243 286 250 245 172 165 178 209 133 140 179 121 121 155 191 241 221 192 202 184 308 275 247 223 205 201 203 209 218 211 205 199 212 219 232 230 239 215 220 239 222 237 221 211 225 236 221 181 203 209 210 213